Showing default

LEMUR-2 MARIO-SOUSA, 67365

Orbit data source: Space-Track

LEMUR-2 MARIO-SOUSA, 67365 is a payload satellite owned by Spire/Lux (US) in SSO that was launched on Sun, 11 Jan 2026 UTC via an FALCON 9 launch vehicle from the Air Force Western Test Range (AFWTR). Payload-class satellites include a variety of spacecraft equipped with specific instruments for various scientific and technological missions. These include communications satellites like Starlink; space stations such as the ISS; scientific satellites like the Hubble; Earth observation satellites from companies like Planet Labs, Umbra, and HawkEye 360; GPS; miniature CubeSats for education and research; and military/defense satellites.

Loading next visibility...
Identifier
67365, 2026-004C
Orbit
SSO
Country
Flag of USUS
Related business
Manufacturer
Spire/Glasgow
Mission
Operational Commercial Com/MetRO
Bus & Motor
CUBESAT 3U, Unknown motor
Mass
4.6 kg wet, 4.6 kg dry
Launch date (UTC)
2026-01-11 (8 months ago)
Launch vehicle
FALCON 9
Launch site
Air Force Western Test Range (AFWTR)
Object type
Payload
Rocket body
Debris
Shape & HBR
Box + 2 Pan, 0.3 m
Radar Cross Section
0.054 m², Medium (>0.1 m² and < 1m²)

Expand to show TLE details & history
Last TLE update: 13 hours ago

TLE from 13 hours ago
0 LEMUR-2 MARIO-SOUSA
1 67365U 26004C   26264.22401440  .00001859  00000-0  20273-3 0  9996
2 67365  97.8060 261.3740 0008164 173.0713 187.0618 14.89130386 37580
Epoch: 2026-09-21T05:22Z
TLE epoch observation values (Epoch: 2026-09-21T05:22:34.844Z)
Latitude
-0.00005°
Longitude
-179.37809°
Altitude
609.344 km
Speed
7.552 km/s
True Right ascension
17h 25m 29s
True Declination
0° 00' 00"
Sunlit
Object was in daylight at epoch
Visualization orbit readout
Latitude
Unknown
Longitude
Unknown
Altitude
Unknown
Speed
Unknown
Apparent Right ascension
Unknown
Apparent Declination
Unknown
Sunlit
N/A
Visualization observer readout
Local Sidereal Time
11:33:27
Azimuth
Unknown
Elevation
Unknown
Doppler factor
Unknown
Orbital elements
Apogee altitude
603.371 km
Perigee altitude
591.981 km
Semi-major axis
6,975.813 km
Eccentricity
0.00082
Inclination
97.806°
RAAN
261.374°
Arg. of periapsis
173.0713°
True anomaly
187.05031°
Mean anomaly
187.0618°
Eccentric anomaly
187.05605°
Mean motion
3.72521 °/min
Orbital period
96.64 mins
BSTAR
0.00020273
Loading maneuver chart data...
Computing Atmospheric mass density...
Loading historical data...
Loading historical data...
Loading historical data...
Loading historical data...
Loading historical data...
Loading historical data...
Loading historical data...

Documentation

Showing up to 5 results
|